Location: Ch�tillon
(48.8024°N, 2.2935°E)
Time: 17:54:48
(UTC+00:00)

RS-15 - Pass Details

Date: 07 July 2022
Orbit: 1881 x 2163 km, 64.8° (Epoch: 11 August)

Event Time Altitude Azimuth Distance (km) Brightness Sun altitude
Rises 21:42:02 0° 318° (NW) 5,697 12.3 -12.7°
Reaches altitude 10° 21:45:31 10° 320° (NW) 4,693 11.5 -13.0°
Maximum altitude 21:58:00 85° 51° (NE) 2,152 8.2 -14.0°
Enters shadow 22:08:16 16° 140° (SE) 4,044 9.1 -14.8°
